Track STARLINK-3873 now! 10-day predictions STARLINK-3873 is classified as:
1 52467U 22049S 22181.58334491 -.00015309 00000-0 -26189-3 0 9991 2 52467 53.2152 354.1600 0001510 44.6621 51.1598 15.49928505 1304